This demonstration page uses our WeatherBlox Daily Observations layout. Learn more.

Left ArrowRight Arrow

41.55636, -103.73856

Hourly Observations for October 3, 2021

Temp ( °F °C ) Dew Point ( °F °C ) Humidity (%) Winds ( mph kmh ) Pressure ( in mb ) Visibility ( mi km ) Precip ( " mm )
12:58 am 00:58 Clear 51 10.8 26 -3.1 38 38 SSW 9 15 30.13 1020 10 16 0.00 0.00
1:58 am 01:58 Clear 51 10.5 26 -3.1 39 39 SSW 3 6 30.13 1020 10 16 0.00 0.00
2:58 am 02:58 Clear 48 8.9 27 -2.7 44 44 SW 6 9 30.13 1020 10 16 0.00 0.00
3:58 am 03:58 Clear 50 9.9 26 -3.2 40 40 W 3 6 30.11 1020 10 16 0.00 0.00
4:58 am 04:58 Clear 49 9.3 25 -3.8 40 40 SSW 10 17 30.11 1020 10 16 0.00 0.00
5:58 am 05:58 Clear 50 10 23 -5 35 35 W 9 15 30.11 1020 10 16 0.00 0.00
6:58 am 06:58 Sunny 48 8.9 21 -6.1 34 34 SW 9 15 30.14 1021 10 16 0.00 0.00
7:58 am 07:58 Sunny 50 9.8 22 -5.7 33 33 SSW 9 15 30.14 1021 10 16 0.00 0.00
8:58 am 08:58 Sunny 55 13 24 -4.5 30 30 NNW 3 6 30.14 1021 10 16 0.00 0.00
9:58 am 09:58 Sunny 64 17.7 25 -3.7 23 23 NNW 7 11 30.12 1020 10 16 0.00 0.00
10:58 am 10:58 Sunny 70 21 23 -4.9 17 17 NNW 10 17 30.11 1020 10 16 0.00 0.00
11:58 am 11:58 Sunny 74 23.2 22 -5.7 14 14 NNW 10 17 30.10 1019 10 16 0.00 0.00
12:58 pm 12:58 Sunny 75 24 20 -6.5 13 13 W 8 13 30.07 1018 10 16 0.00 0.00
1:58 pm 13:58 Sunny 78 25.4 19 -7.1 11 11 W 10 17 30.04 1017 10 16 0.00 0.00
2:58 pm 14:58 Sunny 78 25.4 20 -6.5 12 12 NNW 8 13 30.03 1017 10 16 0.00 0.00
3:58 pm 15:58 Sunny 78 25.8 20 -6.9 11 11 NNW 6 9 30.01 1016 10 16 0.00 0.00
7:58 pm 19:58 Clear 58 14.5 20 -6.9 22 22 SSW 6 9 30.09 1019 10 16 0.00 0.00
8:58 pm 20:58 Clear 52 11.3 19 -7.2 27 27 E 6 9 30.11 1020 10 16 0.00 0.00
9:58 pm 21:58 Clear 58 14.4 20 -6.9 22 22 SSW 6 9 30.10 1019 10 16 0.00 0.00
10:58 pm 22:58 Clear 49 9.3 19 -7.2 31 31 SW 7 11 30.12 1020 10 16 0.00 0.00
11:58 pm 23:58 Clear 50 10.2 20 -6.9 30 30 WSW 5 7 30.10 1019 10 16 0.00 0.00

Powered by AerisWeather